,,Stat6,,Stat2,,Stat8,,Stat9,,Stat10,,Wind1,,Wind1,
time,status,PA1M_AVG,status,PR1M_SUM,status,RH1M_AVG,status,SR1M_AVG,status,TA1M_AVG,status,W1dAve1m,status,W1sAve1m,
2004-11-02, 00:00:01,VALID,916.819,VALID,0,VALID,100,VALID,-0.0679233,VALID,19.2849,VALID,137,VALID,1.06597,
2004-11-02, 00:01:00,VALID,916.81,VALID,0,VALID,100,VALID,0.0169808,VALID,19.2904,VALID,152,VALID,1.18532,
2004-11-02, 00:02:00,VALID,916.802,VALID,0,VALID,100,VALID,0,VALID,19.3003,VALID,136,VALID,0.984581,
2004-11-02, 00:03:01,VALID,916.781,VALID,0,VALID,100,VALID,0.0169808,VALID,19.31,VALID,115,VALID,0.588068,
2004-11-02, 00:04:01,VALID,916.781,VALID,0,VALID,100,VALID,0,VALID,19.2842,VALID,112,VALID,0.814258,
2004-11-02, 00:05:00,VALID,916.769,VALID,0,VALID,100,VALID,0,VALID,19.2712,VALID,94,VALID,0.676235,
2004-11-02, 00:06:00,VALID,916.755,VALID,0,VALID,100,VALID,0.0169808,VALID,19.2812,VALID,136,VALID,0.886905,
2004-11-02, 00:07:01,VALID,916.729,VALID,0,VALID,100,VALID,0.0169808,VALID,19.2712,VALID,116,VALID,0.895167,
2004-11-02, 00:08:01,VALID,916.69,VALID,0,VALID,100,VALID,0,VALID,19.2747,VALID,125,VALID,0.691406,
2004-11-02, 00:09:00,VALID,916.673,VALID,0,VALID,100,VALID,0.0169808,VALID,19.2648,VALID,144,VALID,0.738554,
2004-11-02, 00:10:00,VALID,916.646,VALID,0,VALID,100,VALID,0,VALID,19.2683,VALID,147,VALID,0.828697,
2004-11-02, 00:11:00,VALID,916.638,VALID,0,VALID,100,VALID,0,VALID,19.2717,VALID,130,VALID,0.987827,
2004-11-02, 00:12:01,VALID,916.643,VALID,0,VALID,100,VALID,-0.0169808,VALID,19.2486,VALID,131,VALID,1.26083,
2004-11-02, 00:13:00,VALID,916.641,VALID,0,VALID,100,VALID,0,VALID,19.2424,VALID,124,VALID,1.15382,
2004-11-02, 00:14:00,VALID,916.637,VALID,0,VALID,100,VALID,0,VALID,19.2424,VALID,119,VALID,0.837536,
2004-11-02, 00:15:00,VALID,916.624,VALID,0,VALID,100,VALID,0,VALID,19.2327,VALID,109,VALID,0.991493,
2004-11-02, 00:16:01,VALID,916.628,VALID,0,VALID,100,VALID,0,VALID,19.2394,VALID,126,VALID,0.684832,
2004-11-02, 00:17:00,VALID,916.615,VALID,0,VALID,100,VALID,0,VALID,19.2193,VALID,126,VALID,0.83559,
2004-11-02, 00:18:00,VALID,916.617,VALID,0,VALID,100,VALID,0,VALID,19.2163,VALID,122,VALID,0.916667,
2004-11-02, 00:19:01,VALID,916.619,VALID,0,VALID,100,VALID,0,VALID,19.2163,VALID,132,VALID,0.960136,
2004-11-02, 00:20:01,VALID,916.604,VALID,0,VALID,100,VALID,0,VALID,19.197,VALID,131,VALID,1.07508,
2004-11-02, 00:21:00,VALID,916.595,VALID,0,VALID,100,VALID,0,VALID,19.1935,VALID,129,VALID,1.39825,
2004-11-02, 00:22:01,VALID,916.58,VALID,0,VALID,100,VALID,0.0339617,VALID,19.1868,VALID,128,VALID,1.16055,
2004-11-02, 00:23:01,VALID,916.555,VALID,0,VALID,100,VALID,-0.0169808,VALID,19.2009,VALID,133,VALID,1.23029,
2004-11-02, 00:24:01,VALID,916.54,VALID,0,VALID,100,VALID,0,VALID,19.2002,VALID,130,VALID,1.11864,
2004-11-02, 00:25:01,VALID,916.513,VALID,0,VALID,100,VALID,0,VALID,19.1967,VALID,127,VALID,1.10429,
2004-11-02, 00:26:01,VALID,916.501,VALID,0,VALID,100,VALID,0,VALID,19.1908,VALID,130,VALID,1.30226,
2004-11-02, 00:27:00,VALID,916.494,VALID,0,VALID,100,VALID,0,VALID,19.1937,VALID,120,VALID,0.939918,
2004-11-02, 00:28:00,VALID,916.493,VALID,0,VALID,100,VALID,0,VALID,19.1873,VALID,124,VALID,0.687872,
2004-11-02, 00:29:01,VALID,916.494,VALID,0,VALID,100,VALID,0,VALID,19.1741,VALID,124,VALID,0.805035,
2004-11-02, 00:30:01,VALID,916.485,VALID,0,VALID,100,VALID,0,VALID,19.1778,VALID,118,VALID,0.467483,
2004-11-02, 00:31:01,VALID,916.483,VALID,0,VALID,100,VALID,0.0169808,VALID,19.1709,VALID,126,VALID,0.46548,
2004-11-02, 00:32:01,VALID,916.475,VALID,0,VALID,100,VALID,-0.0169808,VALID,19.1714,VALID,105,VALID,0.270389,
2004-11-02, 00:33:01,VALID,916.451,VALID,0,VALID,100,VALID,0,VALID,19.1711,VALID,55,VALID,0.482013,
2004-11-02, 00:34:01,VALID,916.448,VALID,0,VALID,100,VALID,0,VALID,19.1418,VALID,46,VALID,0.644985,
2004-11-02, 00:35:01,VALID,916.444,VALID,0,VALID,100,VALID,0.0169808,VALID,19.1319,VALID,43,VALID,0.710193,
2004-11-02, 00:36:00,VALID,916.439,VALID,0,VALID,100,VALID,0,VALID,19.123,VALID,46,VALID,0.707919,
2004-11-02, 00:37:01,VALID,916.433,VALID,0,VALID,100,VALID,0,VALID,19.0902,VALID,51,VALID,0.867746,
2004-11-02, 00:38:01,VALID,916.437,VALID,0,VALID,100,VALID,0,VALID,19.0715,VALID,61,VALID,0.750727,
2004-11-02, 00:39:00,VALID,916.412,VALID,0,VALID,100,VALID,0.0169808,VALID,19.0551,VALID,61,VALID,0.737995,
2004-11-02, 00:40:01,VALID,916.394,VALID,0,VALID,100,VALID,0,VALID,19.0392,VALID,69,VALID,0.846168,
2004-11-02, 00:41:01,VALID,916.387,VALID,0,VALID,100,VALID,0,VALID,19.0196,VALID,73,VALID,0.756981,
2004-11-02, 00:42:01,VALID,916.358,VALID,0,VALID,100,VALID,0,VALID,19.0062,VALID,69,VALID,0.718559,
2004-11-02, 00:43:01,VALID,916.345,VALID,0,VALID,100,VALID,-0.0169808,VALID,18.9943,VALID,75,VALID,0.986555,
2004-11-02, 00:44:01,VALID,916.333,VALID,0,VALID,100,VALID,0.0169808,VALID,18.9871,VALID,79,VALID,1.12233,
2004-11-02, 00:45:01,VALID,916.327,VALID,0,VALID,100,VALID,0,VALID,18.9774,VALID,84,VALID,1.03052,
2004-11-02, 00:46:01,VALID,916.313,VALID,0,VALID,100,VALID,0.0169808,VALID,18.9774,VALID,90,VALID,0.996271,
2004-11-02, 00:47:01,VALID,916.324,VALID,0,VALID,100,VALID,0.0169808,VALID,18.958,VALID,102,VALID,1.0745,
2004-11-02, 00:48:01,VALID,916.312,VALID,0,VALID,100,VALID,0,VALID,18.9548,VALID,109,VALID,0.901933,
2004-11-02, 00:49:01,VALID,916.3,VALID,0,VALID,100,VALID,0.0339617,VALID,18.9516,VALID,116,VALID,1.11261,
2004-11-02, 00:50:01,VALID,916.287,VALID,0,VALID,100,VALID,0,VALID,18.9287,VALID,126,VALID,1.3584,
2004-11-02, 00:51:01,VALID,916.286,VALID,0,VALID,100,VALID,0.0509425,VALID,18.9357,VALID,126,VALID,1.20703,
2004-11-02, 00:52:01,VALID,916.275,VALID,0,VALID,100,VALID,0.0169808,VALID,18.929,VALID,127,VALID,0.788132,
2004-11-02, 00:53:01,VALID,916.264,VALID,0,VALID,100,VALID,0,VALID,18.9387,VALID,137,VALID,0.9893,
2004-11-02, 00:54:01,VALID,916.252,VALID,0,VALID,100,VALID,0,VALID,18.9454,VALID,138,VALID,1.10309,
2004-11-02, 00:55:01,VALID,916.244,VALID,0,VALID,100,VALID,0,VALID,18.9551,VALID,144,VALID,1.06694,
2004-11-02, 00:56:01,VALID,916.224,VALID,0,VALID,100,VALID,0,VALID,18.9779,VALID,135,VALID,1.07106,
2004-11-02, 00:57:01,VALID,916.213,VALID,0,VALID,100,VALID,0,VALID,18.971,VALID,144,VALID,0.862038,
2004-11-02, 00:58:01,VALID,916.188,VALID,0,VALID,100,VALID,0,VALID,18.968,VALID,137,VALID,1.27184,
2004-11-02, 00:59:01,VALID,916.182,VALID,0,VALID,100,VALID,0.0169808,VALID,18.968,VALID,122,VALID,1.23456,
2004-11-02, 01:00:01,VALID,916.174,VALID,0,VALID,100,VALID,-0.0339617,VALID,18.9555,VALID,115,VALID,1.21416,
2004-11-02, 01:01:01,VALID,916.164,VALID,0,VALID,100,VALID,-0.101885,VALID,18.9429,VALID,110,VALID,1.18993,
2004-11-02, 01:02:01,VALID,916.144,VALID,0,VALID,100,VALID,-0.101885,VALID,18.9466,VALID,152,VALID,0.71946,
2004-11-02, 01:03:01,VALID,916.127,VALID,0,VALID,100,VALID,-0.101885,VALID,18.95,VALID,128,VALID,1.22713,
2004-11-02, 01:04:01,VALID,916.112,VALID,0,VALID,100,VALID,-0.101885,VALID,18.9339,VALID,126,VALID,1.17281,
2004-11-02, 01:05:01,VALID,916.087,VALID,0,VALID,100,VALID,-0.101885,VALID,18.9274,VALID,126,VALID,1.19985,
2004-11-02, 01:06:01,VALID,916.062,VALID,0,VALID,100,VALID,-0.101885,VALID,18.9175,VALID,125,VALID,1.14101,
2004-11-02, 01:07:00,VALID,916.055,VALID,0,VALID,100,VALID,-0.101885,VALID,18.9043,VALID,113,VALID,0.736683,
2004-11-02, 01:08:00,VALID,916.039,VALID,0,VALID,100,VALID,-0.101885,VALID,18.9279,VALID,124,VALID,0.952939,
2004-11-02, 01:09:00,VALID,916.039,VALID,0,VALID,100,VALID,-0.101885,VALID,18.9272,VALID,127,VALID,0.914426,
2004-11-02, 01:10:00,VALID,916.02,VALID,0,VALID,100,VALID,-0.101885,VALID,18.9373,VALID,131,VALID,0.730283,
2004-11-02, 01:11:00,VALID,916.014,VALID,0,VALID,100,VALID,-0.101885,VALID,18.9269,VALID,116,VALID,0.334375,
2004-11-02, 01:12:00,VALID,916.004,VALID,0,VALID,100,VALID,-0.101885,VALID,18.9336,VALID,119,VALID,0.717634,
2004-11-02, 01:13:00,VALID,916.013,VALID,0,VALID,100,VALID,-0.101885,VALID,18.924,VALID,133,VALID,0.90645,
2004-11-02, 01:14:00,VALID,916.001,VALID,0,VALID,100,VALID,-0.101885,VALID,18.9242,VALID,120,VALID,0.771019,
2004-11-02, 01:15:00,VALID,915.993,VALID,0,VALID,100,VALID,-0.0509425,VALID,18.9078,VALID,98,VALID,0.718164,
2004-11-02, 01:16:00,VALID,915.995,VALID,0,VALID,100,VALID,-0.0849042,VALID,18.9011,VALID,88,VALID,0.314024,
2004-11-02, 01:17:00,VALID,915.972,VALID,0,VALID,100,VALID,-0.101885,VALID,18.9011,VALID,89,VALID,0.29742,
2004-11-02, 01:18:00,VALID,915.955,VALID,0,VALID,100,VALID,-0.0849042,VALID,18.8981,VALID,100,VALID,0.52381,
2004-11-02, 01:19:00,VALID,915.949,VALID,0,VALID,100,VALID,-0.101885,VALID,18.8822,VALID,100,VALID,0.337652,
2004-11-02, 01:20:00,VALID,915.944,VALID,0,VALID,100,VALID,-0.101885,VALID,18.8884,VALID,83,VALID,0.430208,
2004-11-02, 01:21:00,VALID,915.943,VALID,0,VALID,100,VALID,-0.0849042,VALID,18.8852,VALID,62,VALID,0.655849,
2004-11-02, 01:22:00,VALID,915.939,VALID,0,VALID,100,VALID,-0.0679233,VALID,18.8822,VALID,60,VALID,0.698438,
2004-11-02, 01:23:00,VALID,915.927,VALID,0,VALID,100,VALID,-0.0849042,VALID,18.8628,VALID,53,VALID,0.774926,
2004-11-02, 01:24:00,VALID,915.932,VALID,0,VALID,100,VALID,-0.0849042,VALID,18.8372,VALID,53,VALID,0.817086,
2004-11-02, 01:25:00,VALID,915.929,VALID,0,VALID,100,VALID,-0.0679233,VALID,18.8338,VALID,53,VALID,0.897507,
2004-11-02, 01:26:00,VALID,915.929,VALID,0,VALID,100,VALID,-0.0849042,VALID,18.8174,VALID,53,VALID,0.76726,
2004-11-02, 01:27:00,VALID,915.926,VALID,0,VALID,100,VALID,-0.101885,VALID,18.8211,VALID,52,VALID,0.67152,
2004-11-02, 01:28:00,VALID,915.921,VALID,0,VALID,100,VALID,-0.101885,VALID,18.795,VALID,49,VALID,0.933685,
2004-11-02, 01:29:00,VALID,915.905,VALID,0,VALID,100,VALID,-0.0849042,VALID,18.7888,VALID,44,VALID,0.906039,
2004-11-02, 01:30:00,VALID,915.887,VALID,0,VALID,100,VALID,-0.0509425,VALID,18.7694,VALID,43,VALID,0.891197,
2004-11-02, 01:31:00,VALID,915.87,VALID,0,VALID,100,VALID,0,VALID,18.7581,VALID,42,VALID,0.568216,
2004-11-02, 01:32:00,VALID,915.849,VALID,0,VALID,100,VALID,0.0169808,VALID,18.7646,VALID,41,VALID,0.197621,
2004-11-02, 01:33:00,VALID,915.819,VALID,0,VALID,100,VALID,0,VALID,18.7653,VALID,41,VALID,0.203299,
2004-11-02, 01:34:00,VALID,915.805,VALID,0,VALID,100,VALID,0,VALID,18.7623,VALID,41,VALID,0.256037,
2004-11-02, 01:35:00,VALID,915.788,VALID,0,VALID,100,VALID,0.0169808,VALID,18.742,VALID,41,VALID,0.327762,
2004-11-02, 01:36:00,VALID,915.772,VALID,0,VALID,100,VALID,0.0169808,VALID,18.745,VALID,71,VALID,0.559304,
2004-11-02, 01:37:00,VALID,915.771,VALID,0,VALID,100,VALID,0.0339617,VALID,18.7553,VALID,98,VALID,0.644817,
2004-11-02, 01:38:00,VALID,915.762,VALID,0,VALID,100,VALID,0.0169808,VALID,18.7489,VALID,111,VALID,0.720274,
2004-11-02, 01:39:00,VALID,915.754,VALID,0,VALID,100,VALID,0.0339617,VALID,18.7457,VALID,111,VALID,0.66915,
2004-11-02, 01:40:00,VALID,915.743,VALID,0,VALID,100,VALID,0,VALID,18.7454,VALID,113,VALID,0.44809,
2004-11-02, 01:41:00,VALID,915.741,VALID,0,VALID,100,VALID,0.0339617,VALID,18.7454,VALID,114,VALID,0.532138,
2004-11-02, 01:42:00,VALID,915.737,VALID,0,VALID,100,VALID,0.0169808,VALID,18.762,VALID,98,VALID,0.671026,
2004-11-02, 01:43:00,VALID,915.721,VALID,0,VALID,100,VALID,0,VALID,18.7487,VALID,98,VALID,0.802379,
2004-11-02, 01:44:00,VALID,915.722,VALID,0,VALID,100,VALID,-0.0169808,VALID,18.7489,VALID,103,VALID,0.507068,
2004-11-02, 01:45:00,VALID,915.702,VALID,0,VALID,100,VALID,0,VALID,18.7424,VALID,102,VALID,0.360764,
2004-11-02, 01:46:00,VALID,915.689,VALID,0,VALID,100,VALID,0,VALID,18.7516,VALID,101,VALID,0.357777,
2004-11-02, 01:47:00,VALID,915.682,VALID,0,VALID,100,VALID,-0.0169808,VALID,18.759,VALID,101,VALID,0.775298,
2004-11-02, 01:48:00,VALID,915.673,VALID,0,VALID,100,VALID,0,VALID,18.7422,VALID,93,VALID,0.561967,
2004-11-02, 01:49:00,VALID,915.66,VALID,0,VALID,100,VALID,0,VALID,18.7494,VALID,89,VALID,0.439986,
2004-11-02, 01:50:00,VALID,915.658,VALID,0,VALID,100,VALID,0.0169808,VALID,18.7457,VALID,89,VALID,0.55923,
2004-11-02, 01:51:00,VALID,915.654,VALID,0,VALID,100,VALID,0.0169808,VALID,18.7459,VALID,122,VALID,0.47154,
2004-11-02, 01:52:00,VALID,915.644,VALID,0,VALID,100,VALID,0.0169808,VALID,18.7427,VALID,114,VALID,0.441229,
2004-11-02, 01:53:00,VALID,915.653,VALID,0,VALID,100,VALID,0,VALID,18.739,VALID,113,VALID,0.339844,
2004-11-02, 01:54:00,VALID,915.679,VALID,0,VALID,100,VALID,0,VALID,18.7528,VALID,104,VALID,0.459413,
2004-11-02, 01:55:00,VALID,915.669,VALID,0,VALID,100,VALID,0,VALID,18.7298,VALID,90,VALID,0.646341,
2004-11-02, 01:56:00,VALID,915.669,VALID,0,VALID,100,VALID,0,VALID,18.7265,VALID,76,VALID,0.639737,
2004-11-02, 01:57:00,VALID,915.676,VALID,0,VALID,100,VALID,0,VALID,18.7131,VALID,78,VALID,0.443892,
2004-11-02, 01:58:00,VALID,915.677,VALID,0,VALID,100,VALID,-0.0339617,VALID,18.7101,VALID,99,VALID,0.581445,
2004-11-02, 01:59:00,VALID,915.676,VALID,0,VALID,100,VALID,0,VALID,18.7136,VALID,100,VALID,0.404978,
2004-11-02, 02:00:00,VALID,915.65,VALID,0,VALID,100,VALID,0.0169808,VALID,18.7138,VALID,95,VALID,0.739844,
2004-11-02, 02:01:00,VALID,915.641,VALID,0,VALID,100,VALID,0,VALID,18.7005,VALID,127,VALID,0.472942,
2004-11-02, 02:02:00,VALID,915.627,VALID,0,VALID,100,VALID,0,VALID,18.7238,VALID,102,VALID,0.685865,
2004-11-02, 02:03:00,VALID,915.622,VALID,0,VALID,100,VALID,0,VALID,18.694,VALID,94,VALID,0.71254,
2004-11-02, 02:04:00,VALID,915.61,VALID,0,VALID,100,VALID,0,VALID,18.6915,VALID,91,VALID,0.685082,
2004-11-02, 02:05:00,VALID,915.606,VALID,0,VALID,100,VALID,0,VALID,18.6816,VALID,89,VALID,0.753196,
2004-11-02, 02:06:00,VALID,915.592,VALID,0,VALID,100,VALID,-0.0169808,VALID,18.6751,VALID,89,VALID,0.836682,
2004-11-02, 02:07:00,VALID,915.605,VALID,0,VALID,100,VALID,-0.0339617,VALID,18.6753,VALID,85,VALID,0.586648,
2004-11-02, 02:08:00,VALID,915.601,VALID,0,VALID,100,VALID,-0.0169808,VALID,18.6523,VALID,108,VALID,1.22017,
2004-11-02, 02:09:00,VALID,915.612,VALID,0,VALID,100,VALID,0,VALID,18.6555,VALID,112,VALID,1.02805,
2004-11-02, 02:10:00,VALID,915.614,VALID,0,VALID,100,VALID,0.0169808,VALID,18.6721,VALID,116,VALID,0.582812,
2004-11-02, 02:11:00,VALID,915.599,VALID,0,VALID,100,VALID,0,VALID,18.6652,VALID,104,VALID,1.39807,
2004-11-02, 02:12:00,VALID,915.595,VALID,0,VALID,100,VALID,0,VALID,18.6786,VALID,109,VALID,1.23297,
2004-11-02, 02:13:00,VALID,915.587,VALID,0,VALID,100,VALID,0,VALID,18.6783,VALID,109,VALID,1.01726,
2004-11-02, 02:14:00,VALID,915.592,VALID,0,VALID,100,VALID,0,VALID,18.688,VALID,111,VALID,0.73492,
2004-11-02, 02:15:00,VALID,915.57,VALID,0,VALID,100,VALID,0,VALID,18.6774,VALID,120,VALID,0.513317,
2004-11-02, 02:16:00,VALID,915.567,VALID,0,VALID,100,VALID,-0.0169808,VALID,18.6942,VALID,129,VALID,0.574673,
2004-11-02, 02:17:00,VALID,915.559,VALID,0,VALID,100,VALID,-0.0169808,VALID,18.7012,VALID,130,VALID,0.999442,
2004-11-02, 02:18:00,VALID,915.557,VALID,0,VALID,100,VALID,-0.0169808,VALID,18.6912,VALID,129,VALID,0.820713,
2004-11-02, 02:19:00,VALID,915.556,VALID,0,VALID,100,VALID,0,VALID,18.6912,VALID,126,VALID,1.14414,
2004-11-02, 02:20:00,VALID,915.56,VALID,0,VALID,100,VALID,-0.0169808,VALID,18.6885,VALID,130,VALID,1.07688,
2004-11-02, 02:21:00,VALID,915.559,VALID,0,VALID,100,VALID,0,VALID,18.6816,VALID,134,VALID,1.06159,
2004-11-02, 02:22:00,VALID,915.558,VALID,0,VALID,100,VALID,-0.0169808,VALID,18.6947,VALID,130,VALID,1.29297,
2004-11-02, 02:23:00,VALID,915.56,VALID,0,VALID,100,VALID,-0.0509425,VALID,18.7014,VALID,129,VALID,1.06105,
2004-11-02, 02:24:00,VALID,915.543,VALID,0,VALID,100,VALID,0,VALID,18.685,VALID,118,VALID,1.17615,
2004-11-02, 02:25:00,VALID,915.548,VALID,0,VALID,100,VALID,0,VALID,18.6684,VALID,103,VALID,0.964311,
2004-11-02, 02:26:00,VALID,915.548,VALID,0,VALID,100,VALID,0,VALID,18.6753,VALID,116,VALID,0.947396,
2004-11-02, 02:27:00,VALID,915.553,VALID,0,VALID,100,VALID,-0.0339617,VALID,18.6654,VALID,100,VALID,0.412109,
2004-11-02, 02:28:00,VALID,915.55,VALID,0,VALID,100,VALID,-0.0679233,VALID,18.6756,VALID,97,VALID,0.518601,
2004-11-02, 02:29:00,VALID,915.542,VALID,0,VALID,100,VALID,-0.0169808,VALID,18.6786,VALID,91,VALID,0.628472,
2004-11-02, 02:30:00,VALID,915.548,VALID,0,VALID,100,VALID,-0.0339617,VALID,18.6749,VALID,98,VALID,0.892912,
2004-11-02, 02:31:00,VALID,915.553,VALID,0,VALID,100,VALID,0.0339617,VALID,18.6806,VALID,115,VALID,0.816134,
2004-11-02, 02:32:00,VALID,915.568,VALID,0,VALID,100,VALID,0.0679233,VALID,18.6739,VALID,94,VALID,0.792259,
2004-11-02, 02:33:00,VALID,915.57,VALID,0,VALID,100,VALID,0.0509425,VALID,18.6705,VALID,87,VALID,0.597202,
2004-11-02, 02:34:00,VALID,915.591,VALID,0,VALID,100,VALID,0.0679233,VALID,18.6739,VALID,104,VALID,0.874455,
2004-11-02, 02:35:00,VALID,915.589,VALID,0,VALID,100,VALID,0.0849042,VALID,18.6772,VALID,108,VALID,0.680051,
2004-11-02, 02:36:00,VALID,915.593,VALID,0,VALID,100,VALID,0.0679233,VALID,18.6739,VALID,116,VALID,0.664388,
2004-11-02, 02:37:00,VALID,915.594,VALID,0,VALID,100,VALID,0.101885,VALID,18.6866,VALID,102,VALID,0.776456,
2004-11-02, 02:38:00,VALID,915.589,VALID,0,VALID,100,VALID,0.0679233,VALID,18.6933,VALID,90,VALID,0.741044,
2004-11-02, 02:39:00,VALID,915.582,VALID,0,VALID,100,VALID,0.0679233,VALID,18.6898,VALID,89,VALID,0.521019,
2004-11-02, 02:40:00,VALID,915.588,VALID,0,VALID,100,VALID,0.0679233,VALID,18.6963,VALID,90,VALID,0.495561,
2004-11-02, 02:41:00,VALID,915.592,VALID,0,VALID,100,VALID,0.0849042,VALID,18.7062,VALID,91,VALID,0.636896,
2004-11-02, 02:42:00,VALID,915.594,VALID,0,VALID,100,VALID,0.0679233,VALID,18.7025,VALID,92,VALID,0.602134,
2004-11-02, 02:43:00,VALID,915.601,VALID,0,VALID,100,VALID,0.0339617,VALID,18.6965,VALID,92,VALID,0.676883,
2004-11-02, 02:44:00,VALID,915.604,VALID,0,VALID,100,VALID,0.0679233,VALID,18.6995,VALID,95,VALID,0.634337,
2004-11-02, 02:45:00,VALID,915.613,VALID,0,VALID,100,VALID,0.0339617,VALID,18.7032,VALID,90,VALID,0.697852,
2004-11-02, 02:46:00,VALID,915.616,VALID,0,VALID,100,VALID,-0.0169808,VALID,18.7238,VALID,84,VALID,0.950817,
2004-11-02, 02:47:00,VALID,915.63,VALID,0,VALID,100,VALID,-0.0169808,VALID,18.7203,VALID,79,VALID,1.02176,
2004-11-02, 02:48:00,VALID,915.644,VALID,0,VALID,100,VALID,-0.0339617,VALID,18.7166,VALID,88,VALID,0.675977,
2004-11-02, 02:49:00,VALID,915.657,VALID,0,VALID,100,VALID,0,VALID,18.73,VALID,100,VALID,0.767578,
2004-11-02, 02:50:00,VALID,915.66,VALID,0,VALID,100,VALID,-0.0169808,VALID,18.7364,VALID,93,VALID,0.627663,
2004-11-02, 02:51:00,VALID,915.661,VALID,0,VALID,100,VALID,-0.0169808,VALID,18.7461,VALID,106,VALID,0.64008,
2004-11-02, 02:52:00,VALID,915.672,VALID,0,VALID,100,VALID,-0.0169808,VALID,18.7556,VALID,124,VALID,1.13826,
2004-11-02, 02:53:00,VALID,915.666,VALID,0,VALID,100,VALID,-0.0339617,VALID,18.7593,VALID,122,VALID,0.894176,
2004-11-02, 02:54:00,VALID,915.675,VALID,0,VALID,100,VALID,0,VALID,18.7787,VALID,125,VALID,1.12445,
2004-11-02, 02:55:00,VALID,915.67,VALID,0,VALID,100,VALID,-0.0339617,VALID,18.7854,VALID,138,VALID,1.14732,
2004-11-02, 02:56:00,VALID,915.669,VALID,0,VALID,100,VALID,0,VALID,18.7816,VALID,117,VALID,0.893864,
2004-11-02, 02:57:00,VALID,915.669,VALID,0,VALID,100,VALID,0,VALID,18.7849,VALID,125,VALID,0.779474,
2004-11-02, 02:58:00,VALID,915.669,VALID,0,VALID,100,VALID,-0.0509425,VALID,18.7881,VALID,109,VALID,0.938453,
2004-11-02, 02:59:00,VALID,915.652,VALID,0,VALID,100,VALID,-0.0339617,VALID,18.7849,VALID,107,VALID,0.811198,
2004-11-02, 03:00:00,VALID,915.652,VALID,0,VALID,100,VALID,0,VALID,18.7849,VALID,99,VALID,0.712326,
2004-11-02, 03:01:00,VALID,915.662,VALID,0,VALID,100,VALID,0,VALID,18.7849,VALID,98,VALID,1.0089,
2004-11-02, 03:02:00,VALID,915.665,VALID,0,VALID,100,VALID,-0.0169808,VALID,18.7849,VALID,91,VALID,0.719097,
2004-11-02, 03:03:00,VALID,915.683,VALID,0,VALID,100,VALID,-0.0679233,VALID,18.7816,VALID,90,VALID,0.681868,
2004-11-02, 03:04:00,VALID,915.671,VALID,0.2,VALID,100,VALID,-0.0339617,VALID,18.798,VALID,112,VALID,0.924219,
2004-11-02, 03:05:00,VALID,915.688,VALID,0,VALID,100,VALID,-0.0509425,VALID,18.7881,VALID,117,VALID,1.0222,
2004-11-02, 03:06:00,VALID,915.679,VALID,0,VALID,100,VALID,0,VALID,18.7911,VALID,116,VALID,0.929514,
2004-11-02, 03:07:00,VALID,915.674,VALID,0,VALID,100,VALID,0,VALID,18.8107,VALID,138,VALID,0.798931,
2004-11-02, 03:08:00,VALID,915.688,VALID,0,VALID,100,VALID,0,VALID,18.8008,VALID,126,VALID,1.11547,
2004-11-02, 03:09:00,VALID,915.685,VALID,0,VALID,100,VALID,0,VALID,18.801,VALID,126,VALID,1.106,
2004-11-02, 03:10:00,VALID,915.702,VALID,0,VALID,100,VALID,-0.0169808,VALID,18.8139,VALID,128,VALID,1.22311,
2004-11-02, 03:11:00,VALID,915.708,VALID,0,VALID,100,VALID,-0.0509425,VALID,18.8107,VALID,127,VALID,1.33129,
2004-11-02, 03:12:00,VALID,915.713,VALID,0,VALID,100,VALID,-0.0339617,VALID,18.8139,VALID,136,VALID,1.48307,
2004-11-02, 03:13:00,VALID,915.706,VALID,0,VALID,100,VALID,-0.0169808,VALID,18.8139,VALID,127,VALID,1.38935,
2004-11-02, 03:14:00,VALID,915.696,VALID,0,VALID,100,VALID,0,VALID,18.8169,VALID,128,VALID,1.28027,
2004-11-02, 03:15:00,VALID,915.692,VALID,0,VALID,100,VALID,-0.0169808,VALID,18.8102,VALID,123,VALID,1.38542,
2004-11-02, 03:16:00,VALID,915.697,VALID,0,VALID,100,VALID,-0.0169808,VALID,18.8137,VALID,121,VALID,1.1291,
2004-11-02, 03:17:00,VALID,915.696,VALID,0,VALID,100,VALID,-0.0679233,VALID,18.8241,VALID,121,VALID,1.03107,
2004-11-02, 03:18:00,VALID,915.694,VALID,0,VALID,100,VALID,-0.0679233,VALID,18.8105,VALID,129,VALID,0.924306,
2004-11-02, 03:19:00,VALID,915.704,VALID,0,VALID,100,VALID,-0.0169808,VALID,18.8209,VALID,118,VALID,0.994913,
2004-11-02, 03:20:00,VALID,915.703,VALID,0,VALID,100,VALID,-0.0339617,VALID,18.8174,VALID,127,VALID,0.809201,
2004-11-02, 03:21:00,VALID,915.705,VALID,0,VALID,100,VALID,-0.0169808,VALID,18.8204,VALID,116,VALID,0.929688,
2004-11-02, 03:22:00,VALID,915.707,VALID,0,VALID,99.971,VALID,0,VALID,18.8107,VALID,117,VALID,0.973011,
2004-11-02, 03:23:00,VALID,915.718,VALID,0.2,VALID,99.9138,VALID,-0.0169808,VALID,18.8105,VALID,122,VALID,0.994368,
2004-11-02, 03:24:00,VALID,915.709,VALID,0,VALID,99.8362,VALID,-0.0339617,VALID,18.8243,VALID,130,VALID,1.05859,
2004-11-02, 03:25:00,VALID,915.715,VALID,0,VALID,99.7714,VALID,-0.0509425,VALID,18.8276,VALID,132,VALID,1.04802,
2004-11-02, 03:26:00,VALID,915.728,VALID,0,VALID,99.6874,VALID,-0.0509425,VALID,18.8467,VALID,134,VALID,1.0278,
2004-11-02, 03:27:00,VALID,915.727,VALID,0,VALID,99.6391,VALID,-0.0339617,VALID,18.8628,VALID,129,VALID,0.872266,
2004-11-02, 03:28:00,VALID,915.743,VALID,0,VALID,99.5514,VALID,-0.0169808,VALID,18.8594,VALID,118,VALID,0.905362,
2004-11-02, 03:29:00,VALID,915.756,VALID,0,VALID,99.5425,VALID,-0.0509425,VALID,18.8688,VALID,125,VALID,0.66806,
2004-11-02, 03:30:00,VALID,915.773,VALID,0,VALID,99.5031,VALID,0.0339617,VALID,18.8654,VALID,135,VALID,1.13027,
2004-11-02, 03:31:00,VALID,915.764,VALID,0,VALID,99.5107,VALID,0.0679233,VALID,18.8607,VALID,116,VALID,1.03181,
2004-11-02, 03:32:00,VALID,915.759,VALID,0,VALID,99.5247,VALID,0.0849042,VALID,18.8612,VALID,105,VALID,0.935902,
2004-11-02, 03:33:00,VALID,915.765,VALID,0,VALID,99.573,VALID,0.0509425,VALID,18.8545,VALID,95,VALID,0.424162,
2004-11-02, 03:34:00,VALID,915.767,VALID,0,VALID,99.6378,VALID,0.101885,VALID,18.8485,VALID,97,VALID,0.50744,
2004-11-02, 03:35:00,VALID,915.778,VALID,0,VALID,99.6798,VALID,0.101885,VALID,18.845,VALID,106,VALID,0.545201,
2004-11-02, 03:36:00,VALID,915.783,VALID,0,VALID,99.7141,VALID,0.101885,VALID,18.8321,VALID,116,VALID,0.391797,
2004-11-02, 03:37:00,VALID,915.77,VALID,0,VALID,99.7408,VALID,0.101885,VALID,18.8289,VALID,115,VALID,0.620617,
2004-11-02, 03:38:00,VALID,915.784,VALID,0,VALID,99.7459,VALID,0.0849042,VALID,18.8257,VALID,127,VALID,0.706364,
2004-11-02, 03:39:00,VALID,915.785,VALID,0,VALID,99.7752,VALID,0.0509425,VALID,18.8093,VALID,121,VALID,0.633956,
2004-11-02, 03:40:00,VALID,915.789,VALID,0,VALID,99.7714,VALID,0.0509425,VALID,18.8227,VALID,141,VALID,0.764063,
2004-11-02, 03:41:00,VALID,915.792,VALID,0,VALID,99.7561,VALID,0.0679233,VALID,18.8321,VALID,150,VALID,0.682355,
2004-11-02, 03:42:00,VALID,915.792,VALID,0,VALID,99.7612,VALID,0.0509425,VALID,18.8321,VALID,161,VALID,0.476396,